Flag for Austria Weather past 2 weeks in Eisenstadt, Burgenland, Austria

Now
37 °F

Overcast.


Feels Like: 34 °F
Forecast: 32 / 38 °F
Wind: 5 mph from Northwest

Location: Eisenstadt

Current Time: Jan 27, 2015 at 8:20:22 PM

Latest Report: Jan 27, 2015 at 7:00 PM


Visibility: 9 mi

Pressure: 30.04 "Hg

Humidity: 74%

Dew point: 30 °F

Location of EisenstadtLocation

Historic Weather in Eisenstadt — Graph

°F

Eisenstadt temperature yesterday

Maximum temperature yesterday: 38 °F (at 3:00 PM)
Minimum temperature yesterday: 28 °F (at 11:00 PM)
Average temperature yesterday: 34 °F

Past Weeks' High & Low Weather Summary

 TemperatureHumidityPressure
High53 °F (Jan 17, 6:00 AM)99% (Jan 20, 4:00 AM)30.31 "Hg (Jan 20, 4:00 AM)
Low26 °F (Jan 27, 3:00 AM)50% (Jan 15, 2:00 AM)29.77 "Hg (Jan 17, 4:00 AM)
Average38 °F81%30.02 "Hg
* Reported Jan 12 7:00 PM — Jan 27 7:00 PM, Eisenstadt, Weather by CustomWeather, © 2014

Note: Actual official high and low records may vary slightly from our data, if they occured in-between our weather recording intervals... More about our weather records

Advertising

Eisenstadt weather history for previous 24 hours

 ConditionsComfort  
Time TempWeatherWind HumidityBarometerVisibility
7:00 PM
Jan 27
37 °FOvercast.5 mph74%30.04 "Hg9 mi
6:00 PM37 °FChilly.5 mph77%30.03 "HgN/A
5:00 PM38 °FChilly.7 mph77%30.01 "HgN/A
4:00 PM39 °FOvercast.6 mph71%30.00 "Hg12 mi
1:00 PM39 °FOvercast.3 mph73%29.99 "Hg12 mi
12:00 PM38 °FChilly.5 mph75%29.99 "HgN/A
11:00 AM37 °FChilly.7 mph82%30.01 "HgN/A
10:00 AM31 °FChilly.No wind95%30.01 "HgN/A
9:00 AM31 °FFog.No wind94%30.01 "HgN/A
8:00 AM32 °FFog.2 mph93%30.01 "HgN/A
7:00 AM29 °FOvercast.No wind92%30.01 "Hg4 mi
5:00 AM28 °FPassing clouds.1 mph89%30.02 "Hg9 mi
4:00 AM26 °FClear.1 mph90%30.03 "Hg9 mi
3:00 AM26 °FChilly.2 mph91%30.06 "HgN/A
2:00 AM26 °FChilly.3 mph91%30.09 "HgN/A
1:00 AM27 °FClear.2 mph90%30.11 "Hg9 mi
12:00 AM27 °FChilly.3 mph90%30.14 "HgN/A
11:00 PM
Jan 26
28 °FChilly.2 mph88%30.16 "HgN/A
9:00 PM29 °FChilly.3 mph87%30.20 "HgN/A
8:00 PM29 °FChilly.1 mph87%30.22 "HgN/A
Weather by CustomWeather, © 2014

See weather overviewHow to use our weather pages